Saint Bonnet de Bellac- Haute Vienne - France
Donnes mto: mardi, 19/06/2012
Date Horaire Temp. E. Hum. E. P.atmo. Pluie Vent Direction Direction Ensoleilleme Solaire P. de rose Temp au vent Rafales
19/06/2012 00:00 14,3 C 78 % 1018,7 hPa 0,0 mm 0,0 km/h (0 Bft) N 360 0 min 0 W/m 10,5 C 14,3 C 0,0 km/h (0 Bft)
19/06/2012 00:10 14,2 C 79 % 1018,9 hPa 0,0 mm 0,0 km/h (0 Bft) N 360 0 min 0 W/m 10,6 C 14,2 C 0,0 km/h (0 Bft)
19/06/2012 00:20 14,0 C 80 % 1018,6 hPa 0,0 mm 0,0 km/h (0 Bft) N 360 0 min 0 W/m 10,6 C 14,0 C 0,0 km/h (0 Bft)
19/06/2012 00:30 13,8 C 80 % 1018,6 hPa 0,0 mm 0,0 km/h (0 Bft) N 360 0 min 0 W/m 10,4 C 13,8 C 0,0 km/h (0 Bft)
19/06/2012 00:40 13,6 C 81 % 1018,8 hPa 0,0 mm 0,0 km/h (0 Bft) N 360 0 min 0 W/m 10,4 C 13,6 C 0,0 km/h (0 Bft)
19/06/2012 00:50 13,4 C 81 % 1018,6 hPa 0,0 mm 0,0 km/h (0 Bft) N 360 0 min 0 W/m 10,2 C 13,4 C 0,0 km/h (0 Bft)
19/06/2012 01:00 13,2 C 82 % 1018,4 hPa 0,0 mm 0,0 km/h (0 Bft) N 360 0 min 0 W/m 10,2 C 13,2 C 0,0 km/h (0 Bft)
19/06/2012 01:10 13,1 C 82 % 1018,3 hPa 0,0 mm 0,0 km/h (0 Bft) N 360 0 min 0 W/m 10,1 C 13,1 C 0,0 km/h (0 Bft)
19/06/2012 01:20 13,2 C 83 % 1018,6 hPa 0,0 mm 0,0 km/h (0 Bft) N 360 0 min 0 W/m 10,4 C 13,2 C 0,0 km/h (0 Bft)
19/06/2012 01:30 13,2 C 84 % 1019,0 hPa 0,0 mm 0,0 km/h (0 Bft) N 360 0 min 0 W/m 10,6 C 13,2 C 0,0 km/h (0 Bft)
19/06/2012 01:40 13,2 C 84 % 1018,9 hPa 0,0 mm 0,0 km/h (0 Bft) N 360 0 min 0 W/m 10,6 C 13,2 C 0,0 km/h (0 Bft)
19/06/2012 01:50 13,3 C 84 % 1018,9 hPa 0,0 mm 0,0 km/h (0 Bft) N 360 0 min 0 W/m 10,7 C 13,3 C 0,0 km/h (0 Bft)
19/06/2012 02:00 13,4 C 84 % 1018,8 hPa 0,0 mm 0,0 km/h (0 Bft) N 360 0 min 0 W/m 10,8 C 13,4 C 0,0 km/h (0 Bft)
19/06/2012 02:10 13,5 C 84 % 1018,8 hPa 0,0 mm 0,0 km/h (0 Bft) N 360 0 min 0 W/m 10,8 C 13,5 C 0,0 km/h (0 Bft)
19/06/2012 02:20 13,6 C 84 % 1018,4 hPa 0,0 mm 0,0 km/h (0 Bft) N 360 0 min 0 W/m 10,9 C 13,6 C 0,0 km/h (0 Bft)
19/06/2012 02:30 13,8 C 83 % 1018,2 hPa 0,0 mm 0,0 km/h (0 Bft) N 360 0 min 0 W/m 11,0 C 13,8 C 0,0 km/h (0 Bft)
19/06/2012 02:40 13,9 C 83 % 1018,0 hPa 0,0 mm 0,0 km/h (0 Bft) N 360 0 min 0 W/m 11,1 C 13,9 C 0,0 km/h (0 Bft)
19/06/2012 02:50 13,9 C 83 % 1018,0 hPa 0,0 mm 0,0 km/h (0 Bft) N 360 0 min 0 W/m 11,1 C 13,9 C 0,0 km/h (0 Bft)
19/06/2012 03:02 13,9 C 83 % 1017,7 hPa 0,0 mm 0,4 km/h (0 Bft) N 360 0 min 0 W/m 11,1 C 13,9 C 1,4 km/h (1 Bft)
19/06/2012 03:10 13,9 C 82 % 1017,7 hPa 0,0 mm 0,4 km/h (0 Bft) N-NE 22 0 min 0 W/m 10,9 C 13,9 C 4,0 km/h (1 Bft)
19/06/2012 03:20 13,9 C 82 % 1017,3 hPa 0,0 mm 1,1 km/h (1 Bft) N 360 0 min 0 W/m 10,9 C 13,9 C 6,8 km/h (2 Bft)
19/06/2012 03:30 13,8 C 82 % 1017,2 hPa 0,0 mm 0,4 km/h (0 Bft) NE 45 0 min 0 W/m 10,8 C 13,8 C 4,0 km/h (1 Bft)
19/06/2012 03:40 13,8 C 83 % 1016,7 hPa 0,0 mm 1,4 km/h (1 Bft) N-NE 22 0 min 0 W/m 11,0 C 13,8 C 2,9 km/h (1 Bft)
19/06/2012 03:50 13,8 C 83 % 1016,6 hPa 0,0 mm 0,0 km/h (0 Bft) N-NE 22 0 min 0 W/m 11,0 C 13,8 C 1,4 km/h (1 Bft)
19/06/2012 04:00 13,8 C 83 % 1016,6 hPa 0,0 mm 1,1 km/h (1 Bft) N 360 0 min 0 W/m 11,0 C 13,8 C 4,0 km/h (1 Bft)
19/06/2012 04:10 13,8 C 83 % 1016,7 hPa 0,0 mm 0,4 km/h (0 Bft) N-NO 337 0 min 0 W/m 11,0 C 13,8 C 3,2 km/h (1 Bft)
19/06/2012 04:20 13,8 C 83 % 1016,5 hPa 0,0 mm 0,0 km/h (0 Bft) NE 45 0 min 0 W/m 11,0 C 13,8 C 0,0 km/h (0 Bft)
19/06/2012 04:30 13,8 C 83 % 1016,4 hPa 0,0 mm 0,0 km/h (0 Bft) NE 45 0 min 0 W/m 11,0 C 13,8 C 0,0 km/h (0 Bft)
19/06/2012 04:40 13,8 C 83 % 1016,1 hPa 0,0 mm 0,0 km/h (0 Bft) N-NE 22 0 min 0 W/m 11,0 C 13,8 C 3,2 km/h (1 Bft)
19/06/2012 04:50 13,8 C 83 % 1015,8 hPa 0,0 mm 0,0 km/h (0 Bft) E-NE 67 0 min 0 W/m 11,0 C 13,8 C 2,9 km/h (1 Bft)
19/06/2012 05:00 13,8 C 83 % 1015,7 hPa 0,0 mm 0,0 km/h (0 Bft) N-NE 22 0 min 0 W/m 11,0 C 13,8 C 3,2 km/h (1 Bft)
19/06/2012 05:10 13,8 C 84 % 1015,6 hPa 0,0 mm 4,3 km/h (1 Bft) N 360 0 min 0 W/m 11,1 C 13,8 C 8,6 km/h (2 Bft)
19/06/2012 05:20 13,9 C 84 % 1015,5 hPa 0,0 mm 1,1 km/h (1 Bft) E-NE 67 0 min 0 W/m 11,2 C 13,9 C 1,1 km/h (1 Bft)
19/06/2012 05:30 13,9 C 84 % 1015,7 hPa 0,0 mm 0,0 km/h (0 Bft) E-NE 67 0 min 0 W/m 11,2 C 13,9 C 0,0 km/h (0 Bft)
19/06/2012 05:40 13,9 C 85 % 1015,7 hPa 0,0 mm 0,0 km/h (0 Bft) E-NE 67 0 min 0 W/m 11,4 C 13,9 C 0,0 km/h (0 Bft)
19/06/2012 05:50 13,9 C 85 % 1015,7 hPa 0,0 mm 0,0 km/h (0 Bft) E-NE 67 0 min 0 W/m 11,4 C 13,9 C 0,0 km/h (0 Bft)
19/06/2012 06:00 13,9 C 85 % 1015,6 hPa 0,0 mm 0,0 km/h (0 Bft) E-NE 67 0 min 0 W/m 11,4 C 13,9 C 0,0 km/h (0 Bft)
19/06/2012 06:10 13,9 C 85 % 1015,8 hPa 0,0 mm 0,0 km/h (0 Bft) E-NE 67 0 min 0 W/m 11,4 C 13,9 C 0,0 km/h (0 Bft)
19/06/2012 06:20 13,9 C 85 % 1015,9 hPa 0,0 mm 0,0 km/h (0 Bft) E-NE 67 0 min 0 W/m 11,4 C 13,9 C 0,0 km/h (0 Bft)
19/06/2012 06:30 13,9 C 85 % 1015,9 hPa 0,0 mm 0,0 km/h (0 Bft) E-NE 67 0 min 0 W/m 11,4 C 13,9 C 0,0 km/h (0 Bft)
19/06/2012 06:40 13,9 C 85 % 1015,6 hPa 0,0 mm 1,1 km/h (1 Bft) N 360 0 min 0 W/m 11,4 C 13,9 C 6,5 km/h (2 Bft)
19/06/2012 06:50 13,9 C 85 % 1015,3 hPa 0,0 mm 1,1 km/h (1 Bft) E 90 0 min 0 W/m 11,4 C 13,9 C 4,3 km/h (1 Bft)
19/06/2012 07:00 13,9 C 86 % 1015,0 hPa 0,0 mm 0,0 km/h (0 Bft) E-SE 112 0 min 0 W/m 11,6 C 13,9 C 0,0 km/h (0 Bft)
19/06/2012 07:10 13,9 C 87 % 1014,8 hPa 0,0 mm 0,0 km/h (0 Bft) NE 45 0 min 0 W/m 11,8 C 13,9 C 0,0 km/h (0 Bft)
19/06/2012 07:20 14,0 C 87 % 1015,3 hPa 0,0 mm 0,4 km/h (0 Bft) N-NO 337 0 min 0 W/m 11,9 C 14,0 C 0,4 km/h (0 Bft)
19/06/2012 07:30 14,1 C 87 % 1015,6 hPa 0,0 mm 0,0 km/h (0 Bft) NO 315 0 min 0 W/m 12,0 C 14,1 C 0,0 km/h (0 Bft)
19/06/2012 07:40 14,2 C 88 % 1015,5 hPa 0,0 mm 2,9 km/h (1 Bft) N-NO 337 0 min 0 W/m 12,2 C 14,2 C 4,3 km/h (1 Bft)
19/06/2012 07:50 14,3 C 88 % 1015,4 hPa 0,0 mm 0,0 km/h (0 Bft) N-NO 337 0 min 0 W/m 12,3 C 14,3 C 0,0 km/h (0 Bft)
19/06/2012 08:00 14,4 C 88 % 1015,6 hPa 0,0 mm 0,0 km/h (0 Bft) N-NO 337 0 min 0 W/m 12,4 C 14,4 C 3,2 km/h (1 Bft)
19/06/2012 08:10 14,6 C 88 % 1015,5 hPa 0,0 mm 0,0 km/h (0 Bft) NE 45 0 min 0 W/m 12,6 C 14,6 C 0,0 km/h (0 Bft)
19/06/2012 08:20 14,9 C 89 % 1015,5 hPa 0,0 mm 2,2 km/h (1 Bft) NE 45 0 min 0 W/m 13,1 C 14,9 C 4,0 km/h (1 Bft)
19/06/2012 08:30 15,4 C 89 % 1015,4 hPa 0,0 mm 0,4 km/h (0 Bft) N-NE 22 0 min 0 W/m 13,6 C 15,4 C 0,4 km/h (0 Bft)
19/06/2012 08:40 16,0 C 87 % 1015,5 hPa 0,0 mm 0,4 km/h (0 Bft) N-NE 22 0 min 0 W/m 13,8 C 16,0 C 4,3 km/h (1 Bft)
19/06/2012 08:50 16,5 C 87 % 1015,4 hPa 0,0 mm 4,0 km/h (1 Bft) N 360 0 min 0 W/m 14,3 C 16,5 C 4,0 km/h (1 Bft)
19/06/2012 09:00 16,8 C 86 % 1015,4 hPa 0,0 mm 4,0 km/h (1 Bft) N 360 0 min 0 W/m 14,4 C 16,8 C 7,6 km/h (2 Bft)
19/06/2012 09:10 17,1 C 85 % 1015,6 hPa 0,0 mm 2,5 km/h (1 Bft) N-NE 22 0 min 0 W/m 14,6 C 17,1 C 3,2 km/h (1 Bft)
19/06/2012 09:20 17,3 C 84 % 1015,3 hPa 0,0 mm 2,5 km/h (1 Bft) NE 45 0 min 0 W/m 14,6 C 17,3 C 3,2 km/h (1 Bft)
19/06/2012 09:30 17,6 C 84 % 1015,6 hPa 0,0 mm 1,4 km/h (1 Bft) N-NE 22 0 min 0 W/m 14,9 C 17,6 C 3,6 km/h (1 Bft)
19/06/2012 09:40 18,1 C 82 % 1015,2 hPa 0,0 mm 4,7 km/h (1 Bft) N-NE 22 0 min 0 W/m 15,0 C 18,1 C 7,9 km/h (2 Bft)
19/06/2012 09:50 18,6 C 80 % 1015,4 hPa 0,0 mm 4,7 km/h (1 Bft) N-NE 22 0 min 0 W/m 15,1 C 18,6 C 7,6 km/h (2 Bft)
19/06/2012 10:00 19,1 C 79 % 1015,5 hPa 0,0 mm 1,1 km/h (1 Bft) NE 45 0 min 0 W/m 15,4 C 19,1 C 1,1 km/h (1 Bft)
19/06/2012 10:10 19,5 C 77 % 1015,3 hPa 0,0 mm 0,0 km/h (0 Bft) NE 45 0 min 0 W/m 15,4 C 19,5 C 0,0 km/h (0 Bft)
19/06/2012 10:20 19,6 C 75 % 1015,3 hPa 0,0 mm 0,4 km/h (0 Bft) N-NO 337 0 min 0 W/m 15,0 C 19,6 C 3,6 km/h (1 Bft)
19/06/2012 10:30 19,8 C 75 % 1015,1 hPa 0,0 mm 0,0 km/h (0 Bft) N 360 0 min 0 W/m 15,2 C 19,8 C 0,0 km/h (0 Bft)
19/06/2012 10:40 20,1 C 74 % 1015,1 hPa 0,0 mm 4,3 km/h (1 Bft) N-NE 22 0 min 0 W/m 15,3 C 20,1 C 7,9 km/h (2 Bft)
19/06/2012 10:50 20,3 C 73 % 1015,3 hPa 0,0 mm 0,4 km/h (0 Bft) N-NE 22 0 min 0 W/m 15,3 C 20,3 C 0,4 km/h (0 Bft)
19/06/2012 11:00 20,8 C 73 % 1015,5 hPa 0,0 mm 0,4 km/h (0 Bft) N 360 0 min 0 W/m 15,8 C 20,8 C 0,4 km/h (0 Bft)
19/06/2012 11:10 21,2 C 71 % 1015,8 hPa 0,0 mm 0,0 km/h (0 Bft) NO 315 0 min 0 W/m 15,7 C 21,2 C 0,0 km/h (0 Bft)
19/06/2012 11:20 21,1 C 71 % 1015,6 hPa 0,0 mm 0,0 km/h (0 Bft) NO 315 0 min 0 W/m 15,6 C 21,1 C 0,0 km/h (0 Bft)
19/06/2012 11:30 21,2 C 71 % 1015,7 hPa 0,0 mm 0,0 km/h (0 Bft) O 270 0 min 0 W/m 15,7 C 21,2 C 0,0 km/h (0 Bft)
19/06/2012 11:40 21,0 C 71 % 1015,7 hPa 0,0 mm 0,0 km/h (0 Bft) O-SO 247 0 min 0 W/m 15,5 C 21,0 C 0,0 km/h (0 Bft)
19/06/2012 11:50 21,1 C 72 % 1015,5 hPa 0,0 mm 0,7 km/h (0 Bft) O 270 0 min 0 W/m 15,8 C 21,1 C 3,6 km/h (1 Bft)
19/06/2012 12:00 21,4 C 72 % 1015,4 hPa 0,0 mm 4,0 km/h (1 Bft) NO 315 0 min 0 W/m 16,1 C 21,4 C 7,6 km/h (2 Bft)
19/06/2012 12:10 21,6 C 72 % 1015,2 hPa 0,0 mm 0,7 km/h (0 Bft) NO 315 0 min 0 W/m 16,3 C 21,6 C 3,2 km/h (1 Bft)
19/06/2012 12:20 21,8 C 72 % 1015,2 hPa 0,0 mm 0,4 km/h (0 Bft) E-NE 67 0 min 0 W/m 16,5 C 21,8 C 4,3 km/h (1 Bft)
19/06/2012 12:30 22,0 C 72 % 1015,1 hPa 0,0 mm 0,7 km/h (0 Bft) N 360 0 min 0 W/m 16,7 C 22,0 C 0,7 km/h (0 Bft)
19/06/2012 12:40 22,2 C 71 % 1015,0 hPa 0,0 mm 2,9 km/h (1 Bft) N-NE 22 0 min 0 W/m 16,7 C 22,2 C 4,3 km/h (1 Bft)
19/06/2012 12:50 22,4 C 71 % 1014,8 hPa 0,0 mm 4,0 km/h (1 Bft) N-NE 22 0 min 0 W/m 16,9 C 22,4 C 7,2 km/h (2 Bft)
19/06/2012 13:00 22,3 C 71 % 1014,7 hPa 0,0 mm 4,0 km/h (1 Bft) N-NE 22 0 min 0 W/m 16,8 C 22,3 C 7,9 km/h (2 Bft)
19/06/2012 13:10 22,2 C 71 % 1014,5 hPa 0,0 mm 4,3 km/h (1 Bft) NE 45 0 min 0 W/m 16,7 C 22,2 C 4,3 km/h (1 Bft)
19/06/2012 13:20 21,9 C 72 % 1014,4 hPa 0,0 mm 3,6 km/h (1 Bft) N 360 0 min 0 W/m 16,6 C 21,9 C 4,0 km/h (1 Bft)
19/06/2012 13:30 21,8 C 72 % 1014,5 hPa 0,0 mm 0,7 km/h (0 Bft) N 360 0 min 0 W/m 16,5 C 21,8 C 3,6 km/h (1 Bft)
19/06/2012 13:40 21,6 C 73 % 1014,7 hPa 0,0 mm 0,7 km/h (0 Bft) NE 45 0 min 0 W/m 16,5 C 21,6 C 3,2 km/h (1 Bft)
19/06/2012 13:50 21,6 C 74 % 1014,3 hPa 0,0 mm 0,0 km/h (0 Bft) N 360 0 min 0 W/m 16,8 C 21,6 C 0,0 km/h (0 Bft)
19/06/2012 14:00 21,7 C 75 % 1014,5 hPa 0,0 mm 0,0 km/h (0 Bft) N 360 0 min 0 W/m 17,1 C 21,7 C 0,0 km/h (0 Bft)
19/06/2012 14:10 21,8 C 75 % 1014,5 hPa 0,0 mm 0,0 km/h (0 Bft) NE 45 0 min 0 W/m 17,2 C 21,8 C 0,0 km/h (0 Bft)
19/06/2012 14:20 21,8 C 75 % 1014,5 hPa 0,0 mm 0,0 km/h (0 Bft) N-NE 22 0 min 0 W/m 17,2 C 21,8 C 0,0 km/h (0 Bft)
19/06/2012 14:30 21,9 C 75 % 1014,4 hPa 0,0 mm 1,1 km/h (1 Bft) N-NE 22 0 min 0 W/m 17,3 C 21,9 C 4,3 km/h (1 Bft)
19/06/2012 14:40 21,8 C 75 % 1014,4 hPa 0,0 mm 0,0 km/h (0 Bft) N-NE 22 0 min 0 W/m 17,2 C 21,8 C 0,0 km/h (0 Bft)
19/06/2012 14:50 21,6 C 75 % 1014,1 hPa 0,0 mm 2,2 km/h (1 Bft) N-NE 22 0 min 0 W/m 17,0 C 21,6 C 4,0 km/h (1 Bft)
19/06/2012 15:00 21,2 C 77 % 1014,1 hPa 0,1 mm 2,9 km/h (1 Bft) N-NE 22 0 min 0 W/m 17,0 C 21,2 C 6,1 km/h (2 Bft)
19/06/2012 15:10 20,8 C 78 % 1013,9 hPa 0,0 mm 2,2 km/h (1 Bft) NE 45 0 min 0 W/m 16,8 C 20,8 C 7,2 km/h (2 Bft)
19/06/2012 15:20 20,6 C 79 % 1013,8 hPa 0,0 mm 0,4 km/h (0 Bft) N-NE 22 0 min 0 W/m 16,8 C 20,6 C 3,2 km/h (1 Bft)
19/06/2012 15:30 20,6 C 79 % 1013,9 hPa 0,0 mm 2,2 km/h (1 Bft) N 360 0 min 0 W/m 16,8 C 20,6 C 4,0 km/h (1 Bft)
19/06/2012 15:40 20,9 C 79 % 1013,7 hPa 0,0 mm 0,7 km/h (0 Bft) N 360 0 min 0 W/m 17,1 C 20,9 C 4,0 km/h (1 Bft)
19/06/2012 15:50 21,1 C 78 % 1013,8 hPa 0,0 mm 0,0 km/h (0 Bft) N 360 0 min 0 W/m 17,1 C 21,1 C 0,0 km/h (0 Bft)
19/06/2012 16:00 21,3 C 78 % 1014,0 hPa 0,0 mm 5,0 km/h (1 Bft) N 360 0 min 0 W/m 17,3 C 21,3 C 5,0 km/h (1 Bft)
19/06/2012 16:10 21,5 C 78 % 1013,9 hPa 0,0 mm 2,2 km/h (1 Bft) N-NE 22 0 min 0 W/m 17,5 C 21,5 C 4,3 km/h (1 Bft)
19/06/2012 16:20 21,6 C 77 % 1014,0 hPa 0,0 mm 0,4 km/h (0 Bft) E-NE 67 0 min 0 W/m 17,4 C 21,6 C 4,3 km/h (1 Bft)
19/06/2012 16:30 21,6 C 77 % 1013,9 hPa 0,0 mm 0,4 km/h (0 Bft) E-NE 67 0 min 0 W/m 17,4 C 21,6 C 0,4 km/h (0 Bft)
19/06/2012 16:40 21,4 C 78 % 1014,2 hPa 0,0 mm 0,0 km/h (0 Bft) E-NE 67 0 min 0 W/m 17,4 C 21,4 C 0,0 km/h (0 Bft)
19/06/2012 16:50 21,2 C 78 % 1014,3 hPa 0,0 mm 0,0 km/h (0 Bft) E-NE 67 0 min 0 W/m 17,2 C 21,2 C 0,0 km/h (0 Bft)
19/06/2012 17:00 21,1 C 79 % 1014,2 hPa 0,0 mm 0,0 km/h (0 Bft) E-NE 67 0 min 0 W/m 17,3 C 21,1 C 0,0 km/h (0 Bft)
19/06/2012 17:10 20,9 C 80 % 1014,1 hPa 0,0 mm 0,7 km/h (0 Bft) E-NE 67 0 min 0 W/m 17,3 C 20,9 C 0,7 km/h (0 Bft)
19/06/2012 17:20 20,7 C 80 % 1014,1 hPa 0,0 mm 0,7 km/h (0 Bft) NO 315 0 min 0 W/m 17,1 C 20,7 C 4,0 km/h (1 Bft)
19/06/2012 17:30 20,6 C 81 % 1014,1 hPa 0,0 mm 0,4 km/h (0 Bft) NO 315 0 min 0 W/m 17,2 C 20,6 C 3,6 km/h (1 Bft)
19/06/2012 17:40 20,4 C 81 % 1013,8 hPa 0,0 mm 0,0 km/h (0 Bft) NO 315 0 min 0 W/m 17,0 C 20,4 C 0,0 km/h (0 Bft)
19/06/2012 17:50 20,2 C 82 % 1013,8 hPa 0,0 mm 0,7 km/h (0 Bft) N-NO 337 0 min 0 W/m 17,0 C 20,2 C 4,3 km/h (1 Bft)
19/06/2012 18:00 20,1 C 82 % 1013,9 hPa 0,0 mm 1,1 km/h (1 Bft) N-NO 337 0 min 0 W/m 16,9 C 20,1 C 1,1 km/h (1 Bft)
19/06/2012 18:10 19,9 C 83 % 1013,7 hPa 0,0 mm 2,9 km/h (1 Bft) NO 315 0 min 0 W/m 16,9 C 19,9 C 4,3 km/h (1 Bft)
19/06/2012 18:20 19,7 C 84 % 1013,7 hPa 0,0 mm 3,2 km/h (1 Bft) NO 315 0 min 0 W/m 16,9 C 19,7 C 3,2 km/h (1 Bft)
19/06/2012 18:30 19,5 C 85 % 1013,7 hPa 0,0 mm 0,0 km/h (0 Bft) N-NO 337 0 min 0 W/m 16,9 C 19,5 C 0,0 km/h (0 Bft)
19/06/2012 18:40 19,4 C 85 % 1013,6 hPa 0,1 mm 0,7 km/h (0 Bft) NO 315 0 min 0 W/m 16,8 C 19,4 C 0,7 km/h (0 Bft)
19/06/2012 18:50 19,3 C 85 % 1013,5 hPa 0,1 mm 0,7 km/h (0 Bft) NO 315 0 min 0 W/m 16,7 C 19,3 C 3,2 km/h (1 Bft)
19/06/2012 19:00 19,3 C 86 % 1013,5 hPa 0,1 mm 0,0 km/h (0 Bft) NO 315 0 min 0 W/m 16,9 C 19,3 C 0,0 km/h (0 Bft)
19/06/2012 19:10 19,3 C 86 % 1013,5 hPa 0,1 mm 0,7 km/h (0 Bft) NO 315 0 min 0 W/m 16,9 C 19,3 C 4,0 km/h (1 Bft)
19/06/2012 19:20 19,2 C 87 % 1013,5 hPa 0,1 mm 0,0 km/h (0 Bft) NO 315 0 min 0 W/m 17,0 C 19,2 C 0,0 km/h (0 Bft)
19/06/2012 19:30 19,1 C 87 % 1013,5 hPa 0,1 mm 0,0 km/h (0 Bft) NO 315 0 min 0 W/m 16,9 C 19,1 C 2,9 km/h (1 Bft)
19/06/2012 19:40 18,9 C 88 % 1013,8 hPa 0,2 mm 0,0 km/h (0 Bft) NO 315 0 min 0 W/m 16,9 C 18,9 C 0,0 km/h (0 Bft)
19/06/2012 19:50 18,9 C 88 % 1013,9 hPa 0,4 mm 0,0 km/h (0 Bft) NO 315 0 min 0 W/m 16,9 C 18,9 C 0,0 km/h (0 Bft)
19/06/2012 20:00 18,8 C 88 % 1013,8 hPa 0,2 mm 1,8 km/h (1 Bft) NO 315 0 min 0 W/m 16,8 C 18,8 C 4,3 km/h (1 Bft)
19/06/2012 20:10 18,6 C 88 % 1013,7 hPa 0,3 mm 2,9 km/h (1 Bft) NO 315 0 min 0 W/m 16,6 C 18,6 C 6,1 km/h (2 Bft)
19/06/2012 20:20 18,5 C 88 % 1013,9 hPa 0,1 mm 2,2 km/h (1 Bft) NO 315 0 min 0 W/m 16,5 C 18,5 C 6,8 km/h (2 Bft)
19/06/2012 20:30 18,4 C 89 % 1014,0 hPa 0,2 mm 4,0 km/h (1 Bft) N-NO 337 0 min 0 W/m 16,6 C 18,4 C 4,0 km/h (1 Bft)
19/06/2012 20:40 18,3 C 89 % 1013,9 hPa 0,0 mm 0,0 km/h (0 Bft) NO 315 0 min 0 W/m 16,5 C 18,3 C 0,0 km/h (0 Bft)
19/06/2012 20:50 18,2 C 89 % 1014,0 hPa 0,0 mm 0,0 km/h (0 Bft) NO 315 0 min 0 W/m 16,4 C 18,2 C 0,0 km/h (0 Bft)
19/06/2012 21:00 18,1 C 89 % 1013,9 hPa 0,1 mm 0,0 km/h (0 Bft) NO 315 0 min 0 W/m 16,3 C 18,1 C 0,0 km/h (0 Bft)
19/06/2012 21:10 18,1 C 89 % 1013,9 hPa 0,1 mm 0,0 km/h (0 Bft) NO 315 0 min 0 W/m 16,3 C 18,1 C 0,0 km/h (0 Bft)
19/06/2012 21:20 17,9 C 89 % 1014,0 hPa 0,0 mm 0,0 km/h (0 Bft) NO 315 0 min 0 W/m 16,1 C 17,9 C 0,0 km/h (0 Bft)
19/06/2012 21:30 17,9 C 89 % 1013,7 hPa 0,1 mm 0,0 km/h (0 Bft) NO 315 0 min 0 W/m 16,1 C 17,9 C 0,0 km/h (0 Bft)
19/06/2012 21:40 17,9 C 90 % 1014,0 hPa 0,1 mm 0,0 km/h (0 Bft) NO 315 0 min 0 W/m 16,2 C 17,9 C 0,0 km/h (0 Bft)
19/06/2012 21:50 17,9 C 90 % 1014,0 hPa 0,0 mm 0,0 km/h (0 Bft) NO 315 0 min 0 W/m 16,2 C 17,9 C 0,0 km/h (0 Bft)
19/06/2012 22:00 17,8 C 90 % 1013,9 hPa 0,0 mm 0,0 km/h (0 Bft) NO 315 0 min 0 W/m 16,1 C 17,8 C 0,0 km/h (0 Bft)
19/06/2012 22:10 17,8 C 90 % 1013,9 hPa 0,0 mm 0,0 km/h (0 Bft) N-NO 337 0 min 0 W/m 16,1 C 17,8 C 0,0 km/h (0 Bft)
19/06/2012 22:20 17,8 C 90 % 1013,7 hPa 0,1 mm 0,0 km/h (0 Bft) N-NO 337 0 min 0 W/m 16,1 C 17,8 C 0,0 km/h (0 Bft)
19/06/2012 22:30 17,8 C 90 % 1013,9 hPa 0,0 mm 0,0 km/h (0 Bft) N-NO 337 0 min 0 W/m 16,1 C 17,8 C 0,0 km/h (0 Bft)
19/06/2012 22:40 17,7 C 90 % 1014,3 hPa 0,0 mm 0,0 km/h (0 Bft) N-NO 337 0 min 0 W/m 16,0 C 17,7 C 0,0 km/h (0 Bft)
19/06/2012 22:50 17,6 C 91 % 1014,5 hPa 0,0 mm 0,0 km/h (0 Bft) N-NO 337 0 min 0 W/m 16,1 C 17,6 C 0,0 km/h (0 Bft)
19/06/2012 23:00 17,5 C 91 % 1014,6 hPa 0,0 mm 0,0 km/h (0 Bft) N-NO 337 0 min 0 W/m 16,0 C 17,5 C 0,0 km/h (0 Bft)
19/06/2012 23:10 17,4 C 91 % 1014,6 hPa 0,0 mm 0,0 km/h (0 Bft) E 90 0 min 0 W/m 15,9 C 17,4 C 0,0 km/h (0 Bft)
19/06/2012 23:20 17,3 C 91 % 1014,6 hPa 0,0 mm 0,0 km/h (0 Bft) E 90 0 min 0 W/m 15,8 C 17,3 C 0,0 km/h (0 Bft)
19/06/2012 23:30 17,2 C 91 % 1014,6 hPa 0,0 mm 0,0 km/h (0 Bft) E 90 0 min 0 W/m 15,7 C 17,2 C 0,0 km/h (0 Bft)
19/06/2012 23:40 17,1 C 91 % 1014,5 hPa 0,0 mm 0,0 km/h (0 Bft) E 90 0 min 0 W/m 15,6 C 17,1 C 0,0 km/h (0 Bft)
19/06/2012 23:50 16,9 C 91 % 1014,5 hPa 0,0 mm 0,0 km/h (0 Bft) E 90 0 min 0 W/m 15,4 C 16,9 C 0,0 km/h (0 Bft)
_ Min-Heure 01:10 13:10 19:30 - 23:50 - - - - 01:10 01:10 23:50
Minimum _ 13,1 C 71 % 1013,5 hPa - 0,0 km/h (0 Bft) - - - - 10,1 C 13,1 C 0,0 km/h (0 Bft)
_ Max-Heure 12:50 23:50 01:30 19:50 16:00 - - 23:50 23:50 16:10 12:50 05:10
Maximum _ 22,4 C 91 % 1019,0 hPa 0,4 mm 5,0 km/h
N (1 Bft)
- - 0 min 0 W/m 17,5 C 22,4 C 8,6 km/h
N (2 Bft)
Moyenne _ 17,6 C 82 % 1015,3 hPa #2,7 mm 0,8 km/h (0 Bft) N - #0 min. 0 W/m 14,5 C 17,6 C 1,9 km/h (1 Bft)
Saint Bonnet de Bellac- Haute Vienne - France